Location: N�rnberg
(49.4471°N, 11.0632°E)
Time: 17:48:21
(UTC+01:00)

ARIANE 6 FM1 Upper Stage - Pass Details

Date: 11 February 2026
Orbit: 523 x 607 km, 62.0° (Epoch: 8 March)

Event Time Altitude Azimuth Distance (km) Brightness Sun altitude
Rises 18:36:18 0° 314° (NW) 2,668 6.7 -11.5°
Reaches altitude 10° 18:39:03 10° 334° (NNW) 1,772 5.5 -11.9°
Maximum altitude 18:41:52 18° 20° (NNE) 1,321 4.3 -12.4°
Enters shadow 18:43:26 15° 49° (NE) 1,475 4.3 -12.6°
